{"data":{"norad_id":32275,"epoch":"2026-05-24T10:51:58.864896Z","epoch_age_seconds":121732,"freshness":"FRESH","line1":"1 32275U 07052A   26144.45276464 -.00000045  00000+0  00000+0 0  9996","line2":"2 32275  65.5906 316.7315 0001785 184.9058 175.0920  2.13103979144552","mean_motion":2.13103979,"eccentricity":0.0001785,"inclination_deg":65.5906,"raan_deg":316.7315,"arg_perigee_deg":184.9058,"mean_anomaly_deg":175.092,"bstar":0,"rev_number":14455,"period_min":675.72647247474,"perigee_km":19125.176352146,"apogee_km":19134.282660489,"semimajor_km":25507.866506318,"source":"CELESTRAK","updated_at":"2026-05-25T13:38:23.888057Z"}}